This demonstration page uses our WeatherBlox Daily Observations layout. Learn more.

Left ArrowRight Arrow

53.62937, 11.41316

Hourly Observations for April 2, 2015

Temp ( °F °C ) Dew Point ( °F °C ) Humidity (%) Winds ( mph kmh ) Pressure ( in mb ) Visibility ( mi km ) Precip ( " mm )
6:11 am 06:11 Mostly Cloudy with Light Rain 34 1 32 0 93 93 W 10 17 29.62 1003 5 8 N/A
6:50 am 06:50 Cloudy 34 1 34 1 100 100 W 12 19 29.62 1003 5 8 N/A
7:20 am 07:20 Mostly Cloudy with Light Snow 36 2 34 1 93 93 W 12 19 29.62 1003 2 4 N/A
7:37 am 07:37 Mostly Cloudy 34 1 34 1 100 100 W 10 17 29.62 1003 5 8 N/A
7:50 am 07:50 Mostly Cloudy 36 2 34 1 93 93 W 9 15 29.62 1003 30 48 N/A
8:20 am 08:20 Partly Cloudy 36 2 32 0 87 87 WNW 9 15 29.62 1003 30 48 N/A
8:50 am 08:50 Partly Cloudy 36 2 34 1 93 93 WNW 10 17 29.62 1003 30 48 N/A
9:20 am 09:20 Partly Cloudy 37 3 34 1 87 87 WNW 9 15 29.65 1004 30 48 N/A
9:50 am 09:50 Partly Cloudy 39 4 34 1 81 81 WNW 12 19 29.65 1004 30 48 N/A
10:20 am 10:20 Mostly Sunny 39 4 32 0 75 75 WNW 12 19 29.65 1004 30 48 N/A
10:50 am 10:50 Partly Cloudy 39 4 30 -1 70 70 WNW 15 24 29.65 1004 30 48 N/A
11:20 am 11:20 Mostly Cloudy 41 5 32 0 70 70 NW 12 19 29.65 1004 30 48 N/A
11:50 am 11:50 Partly Cloudy 41 5 28 -2 61 61 WNW 13 20 29.65 1004 30 48 N/A
12:20 pm 12:20 Mostly Cloudy 43 6 28 -2 57 57 WNW 15 24 29.65 1004 30 48 N/A
12:50 pm 12:50 Mostly Cloudy with Showers Nearby 41 5 32 0 70 70 W 14 22 29.65 1004 30 48 N/A
1:20 pm 13:20 Partly Cloudy 39 4 34 1 81 81 W 20 31 29.68 1005 30 48 N/A
1:50 pm 13:50 Partly Cloudy 41 5 36 2 81 81 W 15 24 29.68 1005 30 48 N/A
2:20 pm 14:20 Mostly Sunny 45 7 34 1 66 66 W 15 24 29.71 1006 30 48 N/A
2:50 pm 14:50 Partly Cloudy 43 6 28 -2 57 57 WNW 16 26 29.71 1006 30 48 N/A
3:20 pm 15:20 Partly Cloudy 45 7 25 -4 46 46 WNW 16 26 29.71 1006 30 48 N/A
3:50 pm 15:50 Partly Cloudy with Showers Nearby 46 8 27 -3 46 46 WNW 15 24 29.71 1006 30 48 N/A
4:18 pm 16:18 Mostly Cloudy with Light Rain/Snow 37 3 30 -1 75 75 WNW 20 31 29.77 1008 30 48 N/A
4:20 pm 16:20 Windy with Rain Showers Likely 39 4 30 -1 70 70 WNW 21 33 29.77 1008 30 48 N/A
4:50 pm 16:50 Partly Cloudy with Showers Nearby 41 5 36 2 81 81 W 12 19 29.77 1008 30 48 N/A
5:20 pm 17:20 Partly Cloudy 43 6 36 2 76 76 W 14 22 29.77 1008 30 48 N/A
5:50 pm 17:50 Partly Cloudy 45 7 28 -2 53 53 NW 12 19 29.80 1009 30 48 N/A
6:20 pm 18:20 Partly Cloudy 45 7 27 -3 49 49 NW 13 20 29.80 1009 30 48 N/A
6:50 pm 18:50 Mostly Cloudy 43 6 27 -3 53 53 NW 13 20 29.83 1010 30 48 N/A

Powered by AerisWeather